Temperature
0 -0 -1 -1 -1 -1 -1 -1 -1 -2 -2 -2 -2 -3 -3 -3 -3 -3 -3 -3 -3 -3 -2 -2 -2 -2 -2 -1 -1 -1 -0 0 1 1 2 3 4 4
-1 -1 -1 -1 -2 -2 -2 -2 -2 -3 -3 -3 -3 -4 -4 -4 -4 -4 -4 -4 -4 -4 -3 -3 -3 -2 -2 -2 -2 -1 -1 -1 0 1 1 2 3 4
-2 -2 -2 -2 -3 -3 -3 -3 -3 -4 -4 -4 -5 -5 -5 -5 -5 -5 -5 -5 -5 -4 -4 -3 -3 -3 -3 -2 -2 -2 -2 -1 -0 0 1 2 3 4
-3 -3 -3 -4 -4 -4 -4 -4 -5 -5 -5 -6 -6 -6 -6 -6 -6 -5 -5 -5 -5 -5 -5 -4 -4 -4 -4 -3 -3 -3 -2 -2 -1 -1 -0 1 1 2
-4 -5 -5 -5 -5 -5 -5 -5 -5 -6 -6 -6 -6 -6 -6 -6 -6 -6 -6 -6 -6 -6 -6 -6 -5 -5 -5 -4 -4 -3 -3 -3 -2 -2 -1 -0 1 2
-5 -6 -6 -6 -5 -5 -5 -5 -6 -6 -6 -7 -7 -7 -7 -6 -6 -7 -7 -7 -7 -7 -7 -7 -7 -6 -6 -5 -5 -4 -4 -3 -3 -2 -2 -1 -0 1
-6 -6 -6 -6 -6 -5 -5 -6 -6 -6 -7 -7 -7 -7 -7 -7 -7 -8 -8 -8 -8 -8 -8 -8 -8 -7 -7 -6 -6 -5 -4 -4 -3 -3 -2 -2 -1 0
-7 -7 -7 -6 -6 -6 -6 -6 -6 -7 -7 -7 -7 -8 -8 -8 -8 -8 -8 -9 -8 -8 -8 -8 -8 -8 -7 -7 -6 -5 -5 -4 -4 -4 -3 -3 -2 -0
-7 -7 -7 -7 -7 -7 -7 -7 -7 -7 -7 -8 -8 -8 -8 -9 -9 -9 -9 -9 -9 -9 -9 -9 -8 -8 -8 -7 -7 -6 -6 -5 -5 -4 -4 -3 -2 -1
-8 -8 -8 -8 -7 -7 -7 -7 -7 -8 -8 -8 -9 -9 -9 -9 -9 -9 -9 -9 -9 -9 -9 -9 -8 -8 -8 -8 -8 -7 -7 -6 -5 -5 -4 -4 -3 -2
-8 -8 -8 -8 -8 -7 -7 -8 -8 -8 -9 -9 -9 -9 -9 -9 -10 -10 -10 -10 -10 -10 -9 -9 -9 -9 -9 -9 -8 -8 -7 -6 -6 -6 -5 -4 -3 -2
-8 -8 -8 -8 -8 -8 -8 -8 -9 -9 -9 -10 -10 -10 -10 -10 -10 -10 -10 -10 -10 -10 -10 -10 -10 -10 -9 -8 -8 -8 -8 -8 -7 -6 -5 -3 -2 -1
-8 -9 -9 -9 -8 -8 -8 -9 -9 -9 -10 -10 -11 -11 -11 -11 -11 -11 -11 -11 -10 -10 -10 -10 -10 -9 -9 -9 -8 -8 -8 -8 -6 -5 -3 -1 -0 1
-9 -9 -9 -9 -9 -9 -9 -10 -10 -10 -11 -11 -11 -11 -11 -11 -11 -11 -10 -10 -10 -9 -9 -9 -9 -9 -9 -8 -8 -7 -7 -6 -5 -4 -2 -1 1 2
-9 -9 -9 -9 -9 -10 -11 -11 -11 -11 -12 -11 -11 -11 -11 -11 -11 -11 -10 -9 -9 -8 -9 -9 -9 -9 -9 -9 -9 -8 -7 -5 -4 -3 -2 -1 0 2
-10 -9 -10 -10 -11 -11 -11 -12 -12 -12 -12 -11 -12 -12 -12 -12 -11 -11 -10 -10 -9 -9 -9 -9 -10 -9 -9 -9 -8 -7 -7 -6 -4 -3 -2 -1 0 1
-9 -10 -11 -11 -12 -12 -12 -12 -12 -12 -12 -12 -12 -12 -12 -11 -11 -10 -10 -10 -9 -9 -9 -9 -9 -9 -9 -9 -8 -7 -6 -5 -4 -3 -2 -1 -1 0
-10 -11 -12 -12 -12 -12 -12 -12 -12 -12 -12 -12 -12 -12 -12 -11 -11 -10 -10 -9 -10 -10 -9 -10 -9 -8 -8 -8 -8 -7 -6 -4 -4 -3 -2 -2 -1 -1
-12 -12 -12 -12 -13 -13 -13 -12 -12 -12 -12 -12 -12 -11 -11 -11 -10 -10 -10 -10 -10 -9 -9 -9 -9 -9 -9 -9 -7 -7 -5 -4 -4 -3 -3 -3 -2 -2
-12 -13 -13 -13 -13 -13 -13 -13 -12 -12 -12 -11 -11 -10 -10 -11 -10 -10 -10 -10 -10 -9 -9 -9 -9 -9 -9 -9 -8 -7 -5 -4 -4 -4 -4 -3 -3 -3
-13 -13 -13 -13 -13 -13 -13 -13 -12 -12 -11 -10 -10 -10 -10 -10 -10 -10 -10 -10 -9 -9 -9 -9 -8 -8 -8 -8 -8 -7 -6 -5 -4 -4 -4 -4 -4 -4
-13 -13 -13 -13 -13 -13 -13 -13 -12 -11 -10 -10 -10 -10 -10 -10 -10 -10 -9 -9 -9 -9 -9 -9 -8 -8 -7 -7 -7 -7 -6 -6 -5 -5 -4 -4 -4 -5
-14 -14 -13 -12 -12 -12 -12 -12 -11 -10 -10 -9 -9 -9 -9 -9 -9 -9 -9 -9 -8 -8 -8 -8 -8 -8 -8 -8 -8 -7 -7 -6 -6 -5 -5 -5 -5 -5
Wind_Speed
9 10 8 8 7 8 8 8 11 20 20 14 9 9 8 5 19 15 11 28 34 35 35 35 36 36 36 36 36 37 37 36 36 35 33 31 27 24
9 10 10 9 8 8 8 7 7 12 20 17 12 11 13 18 23 15 13 33 33 33 33 34 35 35 36 36 36 36 36 35 35 34 33 32 30 27
10 12 13 12 10 8 7 7 7 8 15 18 14 13 13 15 16 10 12 12 15 30 33 34 35 36 36 35 36 36 36 35 34 32 31 31 29 27
12 13 14 14 12 9 8 8 7 8 12 19 17 14 16 15 15 14 17 18 14 27 32 34 35 36 36 36 37 37 36 34 32 30 28 28 27 28
13 15 16 15 14 9 9 9 9 13 10 15 18 16 15 15 16 17 16 12 17 23 29 31 32 34 36 36 36 34 31 31 31 29 28 27 27 27
12 15 16 16 13 11 12 11 11 11 12 14 16 16 16 15 14 13 15 11 14 18 22 25 29 33 34 35 35 33 31 30 30 28 27 26 26 26
13 15 17 20 23 19 16 11 11 13 15 16 16 17 17 16 15 14 17 17 14 12 13 16 16 15 17 25 29 30 31 29 29 28 26 26 26 26
16 17 17 17 20 25 28 28 26 20 18 17 17 18 21 20 15 16 17 20 20 9 10 16 14 15 14 12 25 31 29 29 29 28 27 26 26 27
15 16 16 17 21 13 23 27 23 25 26 21 20 20 20 20 20 20 19 20 20 15 15 18 12 13 13 17 29 31 31 31 31 29 26 25 25 25
13 15 15 14 18 22 19 18 16 15 22 19 15 17 18 17 18 20 20 20 17 12 12 17 12 12 16 13 26 30 32 31 27 23 25 26 27 27
13 14 17 17 27 31 22 21 19 15 24 29 29 28 32 32 26 17 16 17 19 12 7 13 15 15 13 13 18 27 26 24 27 29 29 29 29 29
11 12 21 24 30 32 23 20 18 16 18 19 18 21 19 21 27 17 15 17 18 16 8 10 15 14 12 8 9 8 13 22 27 28 28 29 29 21
14 14 14 29 33 34 29 15 21 25 17 15 14 14 13 12 13 13 14 15 18 17 13 11 15 14 13 10 8 8 8 9 13 17 22 24 24 19
16 14 17 32 34 32 24 25 32 26 13 14 15 15 14 13 13 14 16 17 17 20 19 17 14 13 12 12 9 6 7 9 11 12 11 14 14 11
17 26 30 32 28 19 24 30 24 14 14 15 16 15 12 12 14 14 15 15 16 15 13 12 12 9 7 7 8 9 9 8 10 9 7 6 5 4
16 21 25 25 22 22 21 17 13 13 16 15 16 14 13 12 13 13 14 14 13 10 7 6 8 8 6 7 9 11 9 6 7 8 5 6 7 7
20 10 8 11 11 12 13 12 13 14 15 14 15 15 15 14 14 12 12 13 11 10 9 6 6 7 7 5 7 8 6 5 5 5 5 7 9 10
20 12 13 13 14 15 16 16 16 15 15 15 15 15 15 15 14 13 12 11 11 11 11 8 7 6 3 2 7 7 6 5 6 8 7 8 11 11
14 12 13 14 15 15 15 16 16 16 15 14 14 14 14 14 13 13 12 11 11 11 10 7 6 6 6 6 7 12 6 6 7 10 10 10 11 12
10 12 14 14 15 15 16 16 15 15 14 14 14 14 13 14 13 13 12 11 11 11 9 6 5 5 4 4 5 7 13 8 8 10 10 11 14 20
13 13 14 14 15 15 15 15 15 15 15 15 14 14 13 13 13 13 12 15 12 9 8 7 6 9 4 3 4 8 11 17 14 8 6 8 10 11
14 14 15 15 15 15 14 14 14 14 15 14 14 13 12 12 12 13 11 10 9 8 6 5 6 6 5 6 8 9 9 10 15 20 17 11 5 6
14 15 15 15 14 14 13 14 15 14 14 14 13 13 12 11 10 10 10 9 8 8 5 5 5 5 5 6 7 8 11 11 10 11 11 15 20 21
Wind_Direction
293 290 291 287 284 285 288 292 300 304 304 307 306 300 312 310 307 307 312 312 308 305 304 303 302 302 302 301 300 298 296 294 294 293 291 286 277 264
295 296 296 294 290 288 287 289 292 299 299 302 306 314 314 309 307 307 305 304 301 300 299 299 298 297 295 294 294 295 294 291 289 288 286 284 280 271
304 306 302 301 298 295 297 296 292 293 297 301 304 305 302 302 300 290 293 290 293 297 299 301 300 299 298 297 296 294 293 292 289 288 287 283 281 279
313 308 306 306 303 302 297 295 296 298 295 296 300 300 297 296 296 296 302 299 296 298 301 302 300 299 299 298 296 294 294 294 292 293 293 291 288 285
312 309 307 305 300 295 295 295 293 294 287 292 296 298 297 296 296 295 294 294 299 301 302 301 300 300 298 297 297 296 298 298 297 296 293 292 290 286
308 306 303 299 296 296 296 287 289 292 291 292 295 300 301 296 294 300 302 296 298 302 298 296 298 299 297 297 297 297 296 293 291 290 290 292 293 290
309 304 299 299 302 302 301 301 302 300 300 298 299 303 305 307 304 302 303 305 296 294 294 293 294 290 292 293 294 293 292 293 295 295 295 294 291 291
308 303 299 299 303 310 311 307 305 307 309 307 307 306 303 301 300 301 303 301 298 291 284 293 291 289 290 289 292 294 296 298 298 296 293 292 289 285
302 303 307 312 316 307 303 306 309 307 308 307 303 300 302 305 303 300 298 296 295 300 297 293 288 288 293 296 298 299 298 296 293 291 289 289 286 281
299 304 308 310 308 306 306 309 307 304 303 304 298 300 302 301 299 301 300 298 292 286 285 291 294 292 295 292 294 292 290 289 289 291 294 289 284 279
299 305 309 306 306 312 316 311 308 305 311 308 306 307 307 307 307 305 302 300 299 297 283 288 294 294 291 286 282 283 286 294 297 294 287 279 274 268
304 304 308 310 312 316 316 313 313 311 312 312 310 307 303 300 302 299 298 298 298 299 285 283 292 296 295 269 256 267 284 290 291 290 284 276 267 257
315 314 312 314 316 317 319 317 313 317 320 315 309 305 303 300 298 294 292 292 293 292 291 286 289 288 285 287 274 268 269 279 289 286 282 279 276 248
314 313 312 315 318 322 324 320 320 324 318 311 308 308 309 308 305 300 295 290 285 285 287 288 287 289 292 296 299 290 289 290 291 287 286 296 301 265
312 313 315 319 325 327 322 322 324 318 312 311 311 310 307 301 303 304 303 299 294 289 288 292 297 297 295 299 301 299 308 304 302 304 309 321 329 329
311 314 322 325 327 325 323 319 314 310 315 312 311 309 309 308 309 311 313 314 311 304 288 290 302 301 296 292 294 295 297 294 309 314 329 351 3 15
324 327 326 326 324 321 320 318 317 318 317 314 314 315 315 315 315 316 314 318 322 325 326 311 305 292 264 278 314 318 318 313 322 342 5 33 35 33
335 331 326 323 322 323 322 320 320 319 319 318 316 315 316 317 317 318 318 323 330 329 329 333 337 334 322 240 338 334 339 350 10 25 34 57 57 49
333 325 323 323 322 320 319 318 318 318 318 317 317 316 316 315 316 317 320 326 328 326 329 339 349 358 12 7 345 358 10 21 42 52 52 60 67 65
325 323 322 321 319 318 318 317 318 319 319 319 317 315 315 314 316 318 320 327 330 328 331 343 349 354 356 332 333 8 35 38 49 59 59 65 74 78
326 323 320 318 317 316 316 317 318 318 316 316 314 313 314 316 319 321 324 330 333 328 337 350 339 346 336 339 37 47 47 52 55 52 42 62 72 77
324 322 319 316 316 316 317 317 317 316 315 314 313 313 314 318 321 323 326 329 328 329 335 344 352 18 33 50 58 55 54 53 53 53 50 49 65 73
322 319 317 316 315 316 316 316 315 314 312 311 311 312 315 320 321 319 322 329 330 336 350 6 14 32 41 44 55 61 62 62 61 60 58 81 91 92
Height
1442 1438 1433 1429 1425 1421 1417 1413 1406 1391 1378 1376 1374 1373 1370 1366 1362 1358 1352 1346 1342 1337 1332 1327 1322 1317 1313 1309 1306 1303 1300 1297 1294 1291 1289 1287 1285 1283
1436 1432 1427 1422 1418 1414 1410 1406 1401 1394 1379 1371 1368 1364 1360 1357 1353 1349 1344 1339 1334 1329 1324 1319 1315 1310 1305 1301 1297 1293 1290 1287 1284 1281 1279 1277 1276 1275
1430 1425 1420 1415 1410 1406 1402 1397 1393 1388 1378 1366 1362 1358 1352 1347 1342 1339 1335 1330 1324 1320 1315 1310 1305 1300 1295 1291 1286 1282 1279 1275 1272 1270 1267 1266 1265 1264
1422 1417 1412 1407 1403 1399 1394 1390 1385 1380 1374 1363 1355 1350 1345 1340 1334 1328 1324 1320 1316 1311 1306 1300 1295 1289 1284 1280 1276 1272 1268 1264 1261 1258 1256 1255 1253 1252
1416 1410 1405 1400 1395 1392 1387 1382 1377 1372 1367 1359 1349 1343 1337 1332 1325 1318 1314 1309 1305 1301 1295 1289 1284 1279 1273 1269 1265 1261 1256 1252 1250 1247 1244 1244 1243 1242
1408 1403 1398 1394 1390 1385 1380 1375 1370 1365 1359 1352 1343 1336 1330 1323 1317 1310 1302 1297 1292 1288 1283 1278 1273 1268 1263 1258 1254 1250 1247 1243 1240 1238 1235 1233 1233 1232
1400 1396 1392 1389 1385 1381 1376 1370 1365 1358 1351 1343 1335 1328 1322 1316 1310 1303 1295 1286 1279 1277 1271 1265 1262 1255 1250 1247 1243 1239 1237 1234 1231 1228 1225 1223 1221 1221
1393 1389 1386 1383 1379 1374 1370 1365 1359 1352 1344 1338 1329 1323 1316 1310 1302 1295 1288 1279 1267 1266 1263 1254 1252 1245 1241 1237 1233 1230 1226 1223 1220 1217 1214 1212 1211 1210
1389 1384 1381 1377 1373 1367 1361 1355 1350 1344 1340 1334 1325 1316 1308 1301 1295 1286 1279 1271 1262 1257 1254 1243 1241 1236 1232 1228 1223 1219 1215 1212 1210 1207 1204 1202 1201 1201
1385 1381 1375 1370 1365 1360 1353 1346 1339 1335 1331 1324 1316 1308 1301 1294 1288 1280 1272 1262 1253 1249 1247 1237 1231 1226 1222 1217 1213 1208 1204 1202 1199 1196 1193 1190 1189 1189
1380 1376 1371 1364 1359 1354 1346 1338 1330 1324 1319 1313 1306 1300 1293 1286 1280 1272 1263 1255 1244 1239 1238 1232 1222 1216 1210 1205 1201 1198 1195 1192 1188 1184 1181 1179 1178 1178
1374 1369 1365 1359 1353 1346 1339 1330 1322 1314 1308 1301 1295 1288 1282 1276 1271 1266 1258 1249 1239 1230 1227 1223 1214 1208 1199 1194 1192 1189 1186 1181 1176 1171 1167 1165 1165 1166
1368 1362 1357 1352 1345 1339 1332 1325 1317 1309 1301 1294 1286 1278 1273 1267 1262 1256 1250 1243 1233 1223 1218 1213 1206 1201 1196 1187 1183 1180 1176 1170 1164 1159 1156 1154 1153 1153
1363 1357 1350 1344 1338 1331 1325 1318 1311 1304 1295 1287 1280 1272 1266 1259 1253 1246 1239 1233 1226 1218 1210 1206 1200 1194 1189 1183 1176 1171 1167 1162 1156 1152 1150 1147 1143 1142
1359 1352 1345 1338 1331 1324 1318 1312 1305 1297 1290 1282 1275 1267 1260 1253 1245 1238 1231 1224 1218 1211 1205 1200 1195 1189 1186 1181 1174 1167 1161 1156 1153 1152 1149 1145 1140 1138
1352 1344 1338 1332 1325 1319 1312 1305 1299 1293 1286 1279 1271 1263 1255 1247 1240 1234 1226 1219 1212 1206 1202 1196 1189 1184 1181 1178 1174 1167 1163 1159 1155 1153 1151 1147 1143 1140
1346 1339 1332 1325 1319 1312 1306 1300 1293 1287 1281 1274 1266 1258 1250 1243 1237 1230 1224 1218 1212 1205 1198 1191 1185 1180 1178 1177 1173 1169 1165 1161 1159 1157 1154 1151 1148 1146
1342 1335 1329 1322 1316 1309 1302 1295 1289 1283 1277 1270 1262 1255 1248 1241 1234 1228 1223 1218 1212 1205 1199 1192 1185 1180 1179 1178 1176 1171 1168 1165 1163 1162 1159 1157 1157 1156
1339 1333 1327 1320 1314 1307 1300 1293 1286 1279 1273 1266 1259 1253 1246 1239 1233 1227 1222 1217 1211 1205 1200 1195 1189 1184 1182 1180 1178 1176 1173 1171 1170 1168 1167 1167 1167 1169
1336 1330 1324 1317 1311 1304 1297 1290 1283 1276 1270 1263 1257 1250 1244 1238 1232 1227 1222 1217 1211 1206 1202 1197 1193 1190 1187 1186 1184 1182 1181 1179 1178 1177 1178 1178 1179 1181
1333 1327 1321 1314 1307 1301 1294 1288 1281 1274 1268 1261 1255 1249 1243 1237 1232 1226 1221 1217 1212 1208 1204 1201 1198 1195 1193 1191 1190 1189 1189 1189 1188 1187 1187 1188 1190 1192
1330 1324 1317 1311 1304 1298 1291 1285 1278 1272 1266 1259 1253 1247 1242 1237 1232 1226 1222 1217 1213 1210 1207 1205 1202 1200 1198 1196 1196 1196 1196 1197 1197 1198 1198 1199 1199 1202
1326 1320 1314 1307 1301 1295 1288 1282 1276 1270 1264 1258 1252 1246 1242 1237 1232 1227 1223 1219 1216 1213 1211 1208 1207 1205 1204 1203 1203 1203 1203 1204 1205 1206 1207 1209 1211 1213